Weather History for KFHU - January, 2014

Change the Weather History Date:

Friday, January 10, 2014

  Actual Average Record
Temperature  
Mean Temperature 48 °F -  
Max Temperature 62 °F 59 °F 73 °F (1990)
Min Temperature 35 °F 37 °F 23 °F (1989)
Degree Days  
Heating Degree Days 16    
Moisture  
Dew Point 17 °F    
Average Humidity 32    
Maximum Humidity 56    
Minimum Humidity 14    
Precipitation  
Precipitation 0.00 in - - ()
Sea Level Pressure  
Sea Level Pressure 30.05 in    
Wind  
Wind Speed 7 mph (West)    
Max Wind Speed 16 mph    
Max Gust Speed -    
Visibility 10 miles    
Events      
Averages and records for this station are not official NWS values.
T = Trace of Precipitation, MM = Missing Value Source: NWS Daily Summary

Daily Weather History Graph

Daily Weather History Graph

Search for Another Location

Airport or City:

Trip Planner

Search our weather history database for the weather conditions in past years. The results will help you decide how hot, cold, wet, or windy it might be!

Date:

Astronomy

Jan. 10, 2014 Rise Set
Actual Time 7:21 AM MST 5:36 PM MST
Civil Twilight 6:55 AM MST 6:02 PM MST
Nautical Twilight 6:25 AM MST 6:32 PM MST
Astronomical Twilight 5:55 AM MST 7:02 PM MST
Moon 1:37 PM MST (1/10) 2:38 AM MST (1/10)
Length of Visible Light 11h 07m
Length of Day
10h 14m
Waxing Gibbous, 75% of the Moon is Illuminated
Jan 10
Waxing Gibbous
Jan 15
Full
Jan 23
Last Quarter
Jan 30
New
Feb 6
First Quarter

Hourly Weather History & Observations

Time (MST) Temp. Windchill Dew Point Humidity Pressure Visibility Wind Dir Wind Speed Gust Speed Precip Events Conditions
12:55 AM 39.2 °F - 17.6 °F 42% 29.99 in 10.0 mi Calm Calm - N/A   Clear
1:55 AM 39.2 °F - 17.6 °F 42% 29.99 in 10.0 mi Calm Calm - N/A   Clear
2:55 AM 39.2 °F 30.5 °F 23.0 °F 52% 29.99 in 10.0 mi West 16.1 mph - N/A   Clear
3:55 AM 35.6 °F 29.9 °F 21.2 °F 56% 30.01 in 10.0 mi West 6.9 mph - N/A   Clear
4:55 AM 39.2 °F 34.2 °F 21.2 °F 49% 30.00 in 10.0 mi West 6.9 mph - N/A   Clear
5:55 AM 37.4 °F 31.4 °F 21.2 °F 52% 30.04 in 10.0 mi WNW 8.1 mph - N/A   Clear
6:55 AM 39.2 °F 32.5 °F 19.4 °F 45% 29.90 in 10.0 mi WSW 10.4 mph - N/A   Clear
7:55 AM 39.2 °F 35.9 °F 17.6 °F 42% 30.08 in 10.0 mi West 4.6 mph - N/A   Partly Cloudy
8:55 AM 48.2 °F - 17.6 °F 30% 30.09 in 10.0 mi WNW 5.8 mph - N/A   Partly Cloudy
9:55 AM 51.8 °F - 14.0 °F 22% 30.10 in 10.0 mi WNW 6.9 mph - N/A   Partly Cloudy
10:55 AM 55.4 °F - 12.2 °F 18% 30.09 in 10.0 mi West 9.2 mph - N/A   Partly Cloudy
11:55 AM 57.2 °F - 10.4 °F 16% 30.06 in 10.0 mi WNW 9.2 mph - N/A   Partly Cloudy
12:55 PM 60.8 °F - 12.2 °F 15% 30.01 in 10.0 mi NW 10.4 mph - N/A   Partly Cloudy
1:55 PM 62.6 °F - 12.2 °F 14% 30.01 in 10.0 mi NW 12.7 mph - N/A   Partly Cloudy
2:55 PM 62.6 °F - 14.0 °F 15% 30.00 in 10.0 mi NW 13.8 mph - N/A   Clear
3:55 PM 60.8 °F - 14.0 °F 16% 30.03 in 10.0 mi WNW 11.5 mph - N/A   Partly Cloudy
4:55 PM 57.2 °F - 15.8 °F 20% 30.03 in 10.0 mi NW 12.7 mph - N/A   Partly Cloudy
5:55 PM 50.0 °F - 17.6 °F 28% 30.08 in 10.0 mi West 11.5 mph - N/A   Partly Cloudy
6:55 PM 48.2 °F - 17.6 °F 30% 30.10 in 10.0 mi West 11.5 mph - N/A   Clear
7:55 PM 48.2 °F - 17.6 °F 30% 30.12 in 10.0 mi WSW 13.8 mph - N/A   Clear
8:55 PM 46.4 °F 40.4 °F 17.6 °F 32% 30.11 in 10.0 mi West 13.8 mph - N/A   Clear
9:55 PM 44.6 °F 38.8 °F 19.4 °F 37% 30.13 in 10.0 mi West 11.5 mph - N/A   Clear
10:55 PM 44.6 °F 38.8 °F 19.4 °F 37% 30.13 in 10.0 mi West 11.5 mph - N/A   Clear
11:56 PM 44.1 °F 38.6 °F 19.0 °F 37% 30.13 in 10.0 mi WSW 10.4 mph - N/A   Clear